Location: Sungai Dangang
(2.7500°N, 113.8333°E)
Time: 06:10:22
(UTC+00:00)

Cosmos 2219 Rocket - Pass Details

Date: 16 May 2021
Orbit: 827 x 847 km, 71.0° (Epoch: 16 June)

Event Time Altitude Azimuth Distance (km) Brightness Sun altitude
Exits shadow 21:14:07 16° 281° (WNW) 2,043 3.7 -14.8°
Maximum altitude 21:14:31 16° 287° (WNW) 2,037 3.7 -14.7°
Drops below altitude 10° 21:17:55 10° 324° (NW) 2,449 4.5 -13.9°
Sets 21:21:19 0° 345° (NNW) 3,385 5.4 -13.1°
